Timeline UpdatesTrip UpdatesNews PostsPvt PostsTravel TipsAdmin PostsConv PostsFollowed PostsChat RequestsBlog PostsPNR Posts

Disclaimer
Search
 
 
Thu Jul 31, 2014 06:49:47 ISTHomeTrainsΣChainsAtlasPNRForumGalleryNewsFAQTripsMembersLoginFeedback
No Recent News for this Train
Other Trains in the News **new
Latest...
..
Fri Mar 08, 2013 (11:04AM)
⇐ Return Journey: Train# 12916

12915/Ashram SF Express

Aug 01 2013 (7:21PM)
Change Departure Station:
Change Arrival Station:
Post a Train Travel TipPost a Train Travel Tip **new
Post a Comment/Question/Picture/VideoPost a Comment/Question/Picture/Video
Inaugural Run
Fri Aug 01, 1997
Pantry/Catering
✕ NO Pantry Car
✓ Catering Avbl
RSA - Rake Sharing
Rake/Coach Composition
Eng-SLR-GEN-GEN-S1-S2-S3-S4-S5-S6-S7-S8-S9-S10-S11-S12-S13-B3-B2-B1-A1-HA1-GEN-GEN-SLR; ( 1AC-.5, 2AC-1.5, 3AC-3, S-13, GEN-4, SLR-2= 24 coach)
Loco
BGKT WDP4/WDP4B/WDP4D
News    PNR    Forum    Time-Table    Availability    Fare Chart    Map    Arr/Dep History    Trips    Gallery    ΣChains    X/O    Timeline    
Travel Time: 15h 40m    18 halts    Distance: 938 km    Avg Speed: 59 km/hr
Type: SuperFast
Zone: WR/Western
Departs @ 18:30 (Avg 3m late)
Platform# 6
SMTWTFS
Ahmedabad Junction/ADI 
Arrives @ 10:10 +1 night (Avg 24m late)
Platform# 3
SMTWTFS
Old Delhi Junction/DLI 

18 halts. 160 intermediate Stations between Ahmedabad Junction and Old Delhi Junction

Hide intermediate Stations  Show Old Time-Table

#CodeStation NameX/OArrivesAvgDepartsAvgHaltPFDay#KmSpeedElevZoneAddress
1ADI»Ahmedabad Junction (12)»  -18:30+3610.02251mWRAhmedabad, Gujarat
1.1SBTASabarmati A CabinX  18:38-18:38-  13.0 2256mWRSabarmati A Cabin, Gujarat
1.2SBICSabarmati BridgeO  18:43-18:43-  14.7 2254mWRSabarmati Bridge, Gujarat
1.3SBTSabarmati Junction (3)  18:45-18:45-  15.4 2252mWRAhmedabad, Gujarat
2SBISabarmati Junction (3)XO  18:45+718:47+72m215.46955mWRAhmadabad, Gujarat
2.1SBISSabarmati SouthO  18:50-18:50-  18.7 6956mWRSabarmati South, Gujarat
2.2CLDBChandlodiya BX  18:54-18:54-  113.1 6955mWRAhmedabad, Gujarat
2.3KHDKhodiyarX  19:00-19:00-  120.4 6965mWRGandhinagar, Gujarat
2.4SHRDSaij Sertha Road (2)  19:06-19:06-  127.0 6971mWRJhulasan, Gujarat
2.5KLLKalol (3)X  19:09-19:09-  131.2 6971mWRKalol, Gujarat
2.6CTRLChhatral  19:13-19:13-  134.7 6972mWRState Highway 133, Gujarat
2.7ENIsand  19:14-19:14-  136.5 6977mWRKhodiyar, Gujarat
2.8PNPansar  19:16-19:16-  138.7 6974mWRPalanpur, Gujarat
2.9JULJhulasan (3)  19:18-19:18-  141.0 6977mWRMehsana, Gujarat
2.10GUSBGhumasan Bg  19:21-19:21-  143.9 6981mWRChandarda, Gujarat
2.11GUSGhumasan  19:21-19:21-  143.9 6982mWRState Highway 41, Gujarat
2.12DNWDangarwa  19:24-19:24-  147.6 6983mWRJagudan, Gujarat
2.13KYSDKaiyal Sedhavi  19:28-19:28-  152.0 6985mWRState Highway 217, Gujarat
2.14KYSBKaiyal Sedhavi Bg  19:28-19:28-  152.0 6985mWRLanghanaj, Gujarat
2.15UMNAmbliyasanX  19:31-19:31-  155.4 6990mWRMehsana, Gujarat
2.16JDNMJagudan  19:37-19:37-  163.2 6990mWRKochva Road, Gujarat
2.17JDNJagudanX  19:37-19:37-  163.2 6990mWRKochva Road, Gujarat
2.18SXSShobhasanX  19:41-19:41-  167.5 6986mWRState Highway 41, Gujarat
3MSHMahesana Junction (6)  19:46+919:48+122m1173.06695mWRMehsana, Gujarat
3.1MSHMMahesana  19:48-19:48-  173.1 6694mWRMehsana, Gujarat
3.2BHUBhandu Motidau  19:58-19:58-  184.1 6697mWRMahesana, Gujarat
3.3UARUnawa Aithor  20:04-20:04-  190.2 66108mWRGujarat State Highway 41, Gujarat
4UJAUnjha  20:08+1420:10+142m2194.945116mWRUnjha, Gujarat
4.1KMLIKamli  20:20-20:20-  1102.2 45126mWRChhapi, Gujarat
4.2SIDSiddhpur  20:28-20:28-  1108.6 45136mWRState Highway 41, Gujarat
4.3DRWDharewada  20:35-20:35-  1114.2 45145mWRUnjha, Gujarat
4.4CHPChhapiX  20:46-20:46-  1121.8 45169mWRBanaskantha, Gujarat
4.5UMUmardashi  20:56-20:56-  1129.6 45187mWRChitrasani, Gujarat
5PNUPalanpur Junction (5)X  21:07+221:09+42m11138.069216mWRPalanpur, Gujarat
5.1KRJDKarjodaX  21:14-21:14-  1144.1 69234mNWRChhapi, Gujarat
5.2CTTChitrasani  21:19-21:19-  1149.5 69225mNWRChitrasani, Gujarat
5.3JTYJethi  21:23-21:23-  1153.9 69212mNWRBANASKANTHA, Gujarat
5.4IQGIqbal Gadh  21:28-21:28-  1160.0 69209mNWRBanaskantha, Gujarat
5.5SZASarotra RoadX  21:35-21:35-  1167.5 69216mNWRSarotra, Gujarat
5.6SIMShri Amirgadh  21:40-21:40-  1172.9 69229mNWRAmirgadh, Gujarat
5.7MAAMaval  21:47-21:47-  1181.3 69245mNWRNational Highway 14, Rajasthan
6ABRAbu Road (3)X  21:55+1822:05+1910m11190.671264mNWRSirohi Dist, Rajasthan
6.1MXOMorthala  22:08-22:08-  1193.7 71267mNWRNH 14, Rajasthan
6.2KWIKivarli  22:13-22:13-  1199.6 71281mNWRShri Amirgadh, Rajasthan
6.3BMNBhimana  22:19-22:19-  1207.5 71313mNWRAbu Road, Rajasthan
6.4SRPJSwarupGanj  22:26-22:26-  1216.0 71334mNWRSirohi Road, Rajasthan
6.5BNSBanasX  22:33-22:33-  1224.4 71347mNWRSirohi Road, Rajasthan
6.6SOHSirohi Road (2)  22:42-22:42-  1234.5 71369mNWRPindwara, Rajasthan
6.7KVJKeshavganj  22:48-22:48-  1242.4 71393mNWRJawai Bandh, Rajasthan
6.8NANANana  22:56-22:56-  1251.5 71355mNWRNana, Rajasthan
6.9KTRKotharX  23:01-23:01-  1257.6 71346mNWRPali, Rajasthan
6.10MOIMori Bera  23:07-23:07-  1263.9 71323mNWRNana, Rajasthan
6.11JWBJawai Bandh  23:14-23:14-  1273.3 71292mNWRPali, Rajasthan
6.12BRLYBiroliya  23:21-23:21-  1281.5 71294mNWRBiroliya Rd, Rajasthan
7FAFalna (2)X  23:28+2323:30+252m--1289.588282mNWRFalna, Rajasthan
7.1KZQKhimel  23:36-23:36-  1297.6 88277mNWRJawai Bandh, Rajasthan
7.2RANIRani  23:40-23:40-  1303.9 88280mNWRRania, Rajasthan
7.3BGPRBhagwanpuraX  23:45-23:45-  1312.0 88276mNWRSomesar, Rajasthan
7.4JALJawali  23:51-23:51-  1319.6 88270mNWRRania, Rajasthan
7.5SOSSomesar  23:56-23:56-  1328.0 88269mNWRSomesar, Rajasthan
7.6BWABhinwaliyaX  00:00-00:00-  2334.1 88268mNWRPindwara, Rajasthan
7.7BGGBanta Raghunathgarh  00:04-00:04-  2340.0 88266mNWRSomesar, Rajasthan
7.8AUWAAuwa (2)  00:09-00:09-  2347.3 88265mNWRSomesar, Rajasthan
7.9MJMarwar Junction (4)  00:15-00:15-  2356.0 88267mNWRMarwar Junction, Rajasthan
7.10DRSDhareshwar  00:21-00:21-  2364.8 88275mNWRMarwar Jn, Rajasthan
7.11BFYBhesana  00:26-00:26-  2371.4 88285mNWRMarwar, Rajasthan
7.12SODSojat Road (2)X  00:30-00:30-  2376.9 88295mNWRSojat Road, Rajasthan
7.13BQNBagri Nagar  00:33-00:33-  2382.1 88295mNWRMarwar, Rajasthan
7.14BGXBagri Sajjanpur  00:36-00:36-  2386.3 88298mNWRHaripur, Rajasthan
7.15CNLChandawalX  00:40-00:40-  2392.1 88304mNWRPali, Rajasthan
7.16GRIGuriyaX  00:47-00:47-  2402.3 88323mNWRPali, Rajasthan
7.17HPHaripur  00:52-00:52-  2410.2 88345mNWRPali, Rajasthan
7.18BARBar  01:00-01:00-  2420.7 88383mNWRHaripur, Rajasthan
7.19SEUSendra  01:06-01:06-  2429.5 88427mNWRSabalpura, Rajasthan
7.20APAAmarpura  01:11-01:11-  2437.7 88468mNWRKharwa, Rajasthan
8BERBeawar (2)  01:15+3201:17+322m--2443.450447mNWRBeawar, Rajasthan
8.1BNGMBangurgram Halt  01:23-01:23-  2448.3 50434mNWRBeawar, Rajasthan
8.2PPFPiplaj  01:28-01:28-  2452.8 50449mNWRBeawar, Rajasthan
8.3KRWKharwa  01:36-01:36-  2459.1 50439mNWRAjmer, Rajasthan
8.4LNALamana  01:43-01:43-  2465.1 50441mNWRBeawar, Rajasthan
8.5MLIMangaliyawas  01:49-01:49-  2469.9 50430mNWRMangliyawas Railway Station, Rajasthan
8.6MKRAMakrera  01:55-01:55-  2475.1 50446mNWRKharwa, Rajasthan
8.7SDHSaradhna  02:01-02:01-  2479.9 50461mNWRMangaliyawas, Rajasthan
8.8DOZDaurai  02:11-02:11-  2488.1 50458mNWRMadar, Rajasthan
9AIIAjmer Junction (5)X  02:20+1302:30+1110m12495.667464mNWRPin: 305001, Rajasthan
9.1MDMadar Junction (6)  02:36-02:36-  2502.5 67490mNWRAjmer, Rajasthan
9.2LRLadpura (2)  02:42-02:42-  2509.2 67468mNWRAjmer, Rajasthan
9.3GEKGegal AkhriX  02:47-02:47-  2514.9 67459mNWRKishangarh, Rajasthan
9.4KSGKishangarh (3)  02:56-02:56-  2524.3 67443mNWRKishangarh, Rajasthan
9.5MNDVMandawariya  03:01-03:01-  2530.1 67445mNWRHarmara Rd, Rajasthan
9.6TLTiloniya  03:05-03:05-  2535.1 67428mNWRTiloniya, Rajasthan
9.7GLTAGahlota  03:09-03:09-  2539.3 67417mNWRKishangarh, Rajasthan
9.8SALISali  03:15-03:15-  2546.4 67395mNWRAjmer, Rajasthan
9.9SKSakhun  03:21-03:21-  2553.2 67392mNWRAjmer, Rajasthan
9.10DTRADantraX  03:27-03:27-  2560.0 67366mNWRMDR 85, Rajasthan
9.11NRINaraina  03:32-03:32-  2565.3 67377mNWRAjmer, Rajasthan
9.12BNWSBhanwsa  03:36-03:36-  2569.4 67382mNWRState Highway 2, Rajasthan
9.13FLPhulera Junction (5)X  03:41-03:41-  2575.2 67386mNWRPhulera, Rajasthan
9.14HDAHirnoda  03:49-03:49-  2583.9 67400mNWRJaipur, Rajasthan
9.15DHNDDhindaX  03:52-03:52-  2587.9 67386mNWRMDR 59, Rajasthan
9.16JOBAsalpur Jobner  03:57-03:57-  2593.5 67379mNWRJaipur, Rajasthan
9.17BOBSBobas  04:04-04:04-  2601.0 67396mNWRJaipur, Rajasthan
9.18SHNXSheo Singh Pura  04:10-04:10-  2607.9 67411mNWRJaipur, Rajasthan
9.19DNKDhanakya  04:13-04:13-  2611.7 67418mNWRJaipur, Rajasthan
9.20BDYKBindayaka  04:18-04:18-  2616.2 67411mNWRJaipur, Rajasthan
9.21KKUKanakpuraX  04:22-04:22-  2621.4 67429mNWRJaipur, Rajasthan
10JPJaipur Junction (7)  04:30+1504:40+1810m12630.282434mNWRJaipur, Rajasthan
10.1GADJJaipur Gandhinagar (2)  04:44-04:44-  2635.7 82426mNWRJaipur, Rajasthan
10.2GTJTGetor Jagatpura (2)  04:48-04:48-  2641.2 82389mNWRJaipur, Rajasthan
10.3KWPKhatipura (2)  04:52-04:52-  2647.1 82364mNWRGandhinagar, Rajasthan
10.4KUTKanauta (2)  04:57-04:57-  2653.6 82350mNWRJaipur, Rajasthan
10.5BAIBassi (3)  05:04-05:04-  2662.8 82352mNWRJaipur, Rajasthan
10.6JHIRJhir (2)  05:09-05:09-  2669.7 82377mNWRKanauta, Rajasthan
10.7BSKOBanskho (2)  05:11-05:11-  2672.3 82362mNWRJaipur, Rajasthan
10.8JWJatwara (2)  05:16-05:16-  2679.7 82329mNWRDausa, Rajasthan
10.9BNDNBhandana (2)  05:20-05:20-  2684.5 82329mNWRBanskho, Rajasthan
11DODausa (2)X  05:25+2705:27+302m22691.775333mNWRDausa, Rajasthan
11.1BAKBhan Kari (2)  05:36-05:36-  2702.5 75301mNWRDausa, Rajasthan
11.2KVGMKolvagram (2)  05:41-05:41-  2709.1 75294mNWRBandikui, Rajasthan
11.3ARNAArnia (2)X  05:45-05:45-  2714.5 75288mNWRBandikui, Rajasthan
12BKIBandikui Junction (6)  05:50+3605:52+372m12720.592283mNWRBandikui, Rajasthan
12.1GLNAGulana (1)X  05:57-05:57-  2727.5 92279mNWRState Highway 25, Rajasthan
12.2BUBaswa (2)  06:00-06:00-  2733.1 92291mNWRAlwar, Rajasthan
12.3SRRGSurergoth (1)  06:04-06:04-  2739.3 92308mNWRState Highway 25, Rajasthan
13RHGRajgarh (2)  06:08+4406:10+452m--2745.072303mNWRRajgarh, Rajasthan
13.1DGWDhigawara (1)  06:16-06:16-  2751.9 72278mNWRBaswa, Rajasthan
13.2MKHMalakhera (1)  06:24-06:24-  2762.0 72265mNWRMala Khera, Rajasthan
13.3MWWMahwa (1)  06:33-06:33-  2772.6 72264mNWRAlwar, Rajasthan
14AWRAlwar Junction (2)  06:40+4206:43+433m--2781.265267mNWRAlwar, Rajasthan
14.1PSLParisalX  06:55-06:55-  2794.8 65289mNWRKhairthal, Rajasthan
14.2GALGhatla  07:01-07:01-  2801.2 65308mNWRState Highway 14, Rajasthan
15KRHKhairthal (2)  07:08+4207:10+422m12808.439305mNWRKhairthal, Rajasthan
15.1HSIHarsauliX  07:22-07:22-  2816.1 39287mNWRHarsoli, Rajasthan
15.2KNARKhanpur AhirX  07:30-07:30-  2821.6 39284mNWRMDR 61, Rajasthan
15.3AIAAjaraka  07:40-07:40-  2827.8 39280mNWRAjaraka, Rajasthan
15.4MJNLMajri NangalX  07:50-07:50-  2834.3 39273mNWRState Highway 52, Rajasthan
15.5BWLBawal  08:00-08:00-  2840.7 39266mNWRBawal, Haryana
15.6KNGTKarnawas  08:10-08:10-  2847.6 39257mNWRKarnawas, Haryana
15.7AMRIAnaj Mandi  08:20-08:20-  2854.2 39248mNWRRampura, Haryana
16RERewari Junction (8)XO  08:23+1508:25+182m62855.977245mNWRRewari, Haryana
16.1KWMDKumbhawas Mundhalia Dabri (1)  08:30-08:30-  2862.6 77237mNRKumbhawas, Haryana
16.2KIPKhalilpurX  08:33-08:33-  2866.4 77235mNRState Highway 26, Haryana
16.3IHPInchhapuri (1)  08:38-08:38-  2872.8 77231mNRGurgaon, Haryana
17PTRDPataudi Road  08:42+2408:44+242m--2877.681227mNRHailley Mandi, Haryana
17.1JSKAJataula Samphka  08:48-08:48-  2882.9 81226mNRHailley Mandi, Haryana
17.2TNJRTaj Nagar (2)X  08:50-08:50-  2886.2 81231mNRGurgaon, Haryana
17.3PTPatli  08:53-08:53-  2889.2 81226mNRGurgaon, Haryana
17.4GHHGarhi Harsaru (3)  08:59-08:59-  2897.4 81220mNRGurgaon, Haryana
17.5BDXTBasai Dhankot (1)X  09:03-09:03-  2903.3 81213mNRGurgaon, Haryana
18GGNGurgaon (3)X  09:06+2309:08+232m22907.245217mNRGurgaon, Haryana
18.1PLVRPalam Vihar Halt  09:13-09:13-  2911.0 45218mNRGurgaon, Haryana
18.2BWSNBijwasan (3)  09:17-09:17-  2913.8 45222mNRBijwasan, Delhi NCT
18.3SMDPShahabad Mohammadpur (2)X  09:21-09:21-  2917.1 45218mNRDwarka, Delhi NCT
18.4PMPalam (3)  09:26-09:26-  2920.6 45222mNRNew Delhi - 110010, Delhi NCT
18.5NSNNasirpur Halt  09:29-09:29-  2923.0 45220mNRnasirpur, Uttar Pradesh
19DECDelhi Cantt. (5)X  09:31+2309:33+232m32924.423217mNRDelhi, Delhi NCT
19.1KRTNKirtinagar (2)  09:48-09:48-  2930.1 23220mNRKirti Nagar, Delhi NCT
19.2PTNRPatel Nagar (7)X  09:50-09:50-  2930.9 23222mNRPatel Nagar, Delhi NCT
19.3DBSIDayabasti  09:55-09:55-  2932.8 23225mNRZakhira, Delhi NCT
19.4DEEDelhi Sarai Rohilla (5)  09:58-09:58-  2934.1 23226mNRNew Rohtak road, Delhi NCT
19.5DKZDelhi KishanGanj (2)  10:02-10:02-  2935.6 23220mNRSarai Rohilla, Delhi NCT
20DLI•Old Delhi Junction (16)•  10:10+24-32938.5-219mNRNear Chandni Chowk Metro Station, Delhi NCT
Scroll to Top
Scroll to Bottom